CAPE
1 0 0 0 0 0 0 0 0 0 0 0 0 0 0 0 0 0 0 0 0 93 21 0 0 0 0 0 0 0 0 0 0 0 0 0 0 0 0 0 0 0 0 0 0
1 0 0 0 0 0 0 0 0 0 0 0 0 0 0 0 0 0 0 0 30 126 0 0 0 0 0 0 0 0 0 0 0 0 0 0 0 0 0 0 0 0 0 0 0
0 0 0 0 0 0 0 0 0 0 0 0 0 0 0 0 0 0 0 0 0 0 0 0 0 0 0 0 0 0 0 0 0 0 0 0 0 0 0 0 0 0 0 0 0
0 0 0 0 0 0 0 0 0 0 0 0 0 0 0 0 0 0 0 0 0 0 0 0 0 0 0 0 0 0 0 0 0 0 0 0 0 0 0 0 0 0 0 0 0
0 0 0 0 0 0 0 0 0 0 0 0 0 0 0 0 0 0 0 0 0 0 0 0 0 0 0 0 0 0 0 0 0 0 0 0 0 0 0 0 0 0 0 0 0
0 0 0 0 0 0 0 0 0 0 0 0 0 0 0 0 0 0 0 0 0 0 0 0 0 0 0 0 0 0 0 0 0 0 0 0 0 0 0 0 0 0 0 0 0
0 0 0 0 0 0 0 0 0 0 0 0 0 0 0 0 0 0 0 0 0 0 0 0 0 0 0 0 0 0 0 0 0 0 0 0 0 0 0 0 0 0 0 0 0
0 0 0 0 0 0 0 0 0 0 0 0 0 0 0 0 0 0 0 0 0 0 0 0 0 0 0 0 0 0 0 0 0 0 0 0 0 0 0 0 0 0 0 0 0
0 0 0 0 0 0 0 0 0 0 0 0 0 0 0 0 0 0 0 0 0 0 0 0 0 0 0 0 0 0 0 0 0 0 0 0 0 0 0 0 0 0 0 0 0
0 0 0 0 0 0 0 0 0 0 0 0 0 0 0 0 0 0 0 0 0 0 0 0 0 0 0 0 0 0 0 0 0 0 0 0 0 0 0 0 0 0 0 0 0
0 0 0 0 0 0 0 0 0 0 0 0 0 0 0 0 0 0 0 0 0 0 0 0 0 0 0 0 0 0 0 0 0 0 0 0 0 0 0 0 0 0 0 0 0
0 0 0 0 0 0 0 0 0 0 0 0 0 0 0 0 0 0 0 0 0 0 0 0 0 0 0 0 0 0 0 0 0 0 0 0 0 0 0 0 0 0 0 0 0
0 0 0 0 0 0 0 0 0 0 0 0 0 0 0 0 0 0 0 0 0 0 0 0 0 0 0 0 0 0 0 0 0 0 0 0 0 0 0 0 0 0 0 0 0
0 0 0 0 0 0 0 0 0 0 0 0 0 0 0 0 0 0 0 0 0 0 0 0 0 0 0 0 0 0 0 0 0 0 0 0 0 0 0 0 0 0 0 0 0
0 0 0 0 0 0 0 0 0 0 0 0 0 0 0 0 0 0 0 0 0 0 0 0 0 0 0 0 0 0 0 0 0 0 0 0 0 0 0 0 0 0 0 0 0
0 0 0 0 0 0 0 0 0 0 0 0 0 0 0 0 0 0 0 0 0 0 0 0 0 0 0 0 0 0 0 0 0 0 0 0 0 0 0 0 0 0 0 0 0
0 0 0 0 0 0 0 0 0 0 0 0 0 0 0 0 0 0 0 0 0 0 0 0 0 0 0 0 0 0 0 0 0 0 0 0 0 0 0 0 0 0 0 0 0
0 0 0 0 0 0 0 0 0 0 0 0 0 0 0 0 0 0 0 0 0 0 0 0 0 0 0 0 0 0 0 0 0 0 0 0 0 0 0 0 0 0 0 0 0
0 0 0 0 0 0 0 0 0 0 0 0 0 0 0 0 0 0 0 0 0 0 0 0 0 0 0 0 0 0 0 0 0 0 0 0 0 0 0 0 0 0 0 3 0
0 0 0 0 0 0 0 0 0 0 0 0 0 0 0 0 0 0 0 0 0 0 0 0 0 0 0 0 0 0 0 0 0 0 0 0 0 4 1 0 0 1 23 38 0
0 0 0 0 0 0 0 0 0 0 0 0 0 0 0 0 0 0 0 0 0 0 0 0 0 0 0 0 0 0 0 0 0 0 23 21 0 0 2 1 6 34 77 38 0
0 0 0 0 0 0 0 0 0 0 0 0 0 0 0 0 0 0 0 0 0 0 0 0 0 0 0 0 0 0 0 0 12 0 5 43 23 0 11 0 41 52 44 5 0
0 0 0 0 0 0 0 0 0 0 0 0 0 0 0 0 0 0 0 0 0 0 0 0 0 0 0 0 0 0 0 0 0 18 11 77 28 17 15 32 44 28 14 2 0
0 0 0 0 0 0 0 0 0 0 0 0 0 0 0 0 0 0 0 0 0 0 0 0 0 0 0 0 0 0 0 0 0 32 48 43 37 25 21 44 39 42 36 13 2
0 0 0 0 0 0 0 0 0 0 0 0 0 0 0 0 0 0 0 0 0 0 0 0 0 0 0 0 0 0 0 0 10 11 77 46 48 79 41 44 61 77 47 23 0
0 0 0 0 0 0 0 0 0 0 0 0 0 0 0 0 0 0 0 0 0 0 0 0 0 0 0 0 0 0 0 0 4 9 28 15 16 4 16 10 7 23 6 23 0
0 0 0 0 0 0 0 0 0 0 0 0 0 0 0 0 0 0 0 0 0 0 0 0 0 0 0 0 0 0 0 0 0 0 9 47 45 3 0 10 9 8 0 4 0
CIN
-0 -0 -0 -0 -0 -0 -0 -0 -0 -0 -0 -0 -0 -0 -0 -0 -0 -0 -0 -0 -0 -653 -538 -0 -0 -0 -0 -0 -0 -0 -0 -0 -0 -0 -0 -0 -0 -0 -0 -0 -0 -0 -0 -0 -0
-0 -0 -0 -0 -0 -0 -0 -0 -0 -0 -0 -0 -0 -0 -0 -0 -0 -0 -0 -0 -679 -566 -0 -0 -0 -0 -0 -0 -0 -0 -0 -0 -0 -0 -0 -0 -0 -0 -0 -0 -0 -0 -0 -0 -0
-0 -0 -0 -0 -0 -0 -0 -0 -0 -0 -0 -0 -0 -0 -0 -0 -0 -0 -0 -0 -0 -0 -0 -0 -0 -0 -0 -0 -0 -0 -0 -0 -0 -0 -0 -0 -0 -0 -0 -0 -0 -0 -0 -0 -0
-0 -0 -0 -0 -0 -0 -0 -0 -0 -0 -0 -0 -0 -0 -0 -0 -0 -0 -0 -0 -0 -0 -0 -0 -0 -0 -0 -0 -0 -0 -0 -0 -0 -0 -0 -0 -0 -0 -0 -0 -0 -0 -0 -0 -0
-0 -0 -0 -0 -0 -0 -0 -0 -0 -0 -0 -0 -0 -0 -0 -0 -0 -0 -0 -0 -0 -0 -0 -0 -0 -0 -0 -0 -0 -0 -0 -0 -0 -0 -0 -0 -0 -0 -0 -0 -0 -0 -0 -0 -0
-0 -0 -0 -0 -0 -0 -0 -0 -0 -0 -0 -0 -0 -0 -0 -0 -0 -0 -0 -0 -0 -0 -0 -0 -0 -0 -0 -0 -0 -0 -0 -0 -0 -0 -0 -0 -0 -0 -0 -0 -0 -0 -0 -0 -0
-0 -0 -0 -0 -0 -0 -0 -0 -0 -0 -0 -0 -0 -0 -0 -0 -0 -0 -0 -0 -0 -0 -0 -0 -0 -0 -0 -0 -0 -0 -0 -0 -0 -0 -0 -0 -0 -0 -0 -0 -0 -0 -0 -0 -0
-0 -0 -0 -0 -0 -0 -0 -0 -0 -0 -0 -0 -0 -0 -0 -0 -0 -0 -0 -0 -0 -0 -0 -0 -0 -0 -0 -0 -0 -0 -0 -0 -0 -0 -0 -0 -0 -0 -0 -0 -0 -0 -0 -0 -0
-0 -0 -0 -0 -0 -0 -0 -0 -0 -0 -0 -0 -0 -0 -0 -0 -0 -0 -0 -0 -0 -0 -0 -0 -0 -0 -0 -0 -0 -0 -0 -0 -0 -0 -0 -0 -0 -0 -0 -0 -0 -0 -0 -0 -0
-0 -0 -0 -0 -0 -0 -0 -0 -0 -0 -0 -0 -0 -0 -0 -0 -0 -0 -0 -0 -0 -0 -0 -0 -0 -0 -0 -0 -0 -0 -0 -0 -0 -0 -0 -0 -0 -0 -0 -0 -0 -0 -0 -0 -0
-0 -0 -0 -0 -0 -0 -0 -0 -0 -0 -0 -0 -0 -0 -0 -0 -0 -0 -0 -0 -0 -0 -0 -0 -0 -0 -0 -0 -0 -0 -0 -0 -0 -0 -0 -0 -0 -0 -0 -0 -0 -0 -0 -0 -0
-0 -0 -0 -0 -0 -0 -0 -0 -0 -0 -0 -0 -0 -0 -0 -0 -0 -0 -0 -0 -0 -0 -0 -0 -0 -0 -0 -0 -0 -0 -0 -0 -0 -0 -0 -0 -0 -0 -0 -0 -0 -0 -0 -0 -0
-0 -0 -0 -0 -0 -0 -0 -0 -0 -0 -0 -0 -0 -0 -0 -0 -0 -0 -0 -0 -0 -0 -0 -0 -0 -0 -0 -0 -0 -0 -0 -0 -0 -0 -0 -0 -0 -0 -0 -0 -0 -0 -0 -0 -0
-0 -0 -0 -0 -0 -0 -0 -0 -0 -0 -0 -0 -0 -0 -0 -0 -0 -0 -0 -0 -0 -0 -0 -0 -0 -0 -0 -0 -0 -0 -0 -0 -0 -0 -0 -0 -0 -0 -0 -0 -0 -0 -0 -0 -0
-0 -0 -0 -0 -0 -0 -0 -0 -0 -0 -0 -0 -0 -0 -0 -0 -0 -0 -0 -0 -0 -0 -0 -0 -0 -0 -0 -0 -0 -0 -0 -0 -0 -0 -0 -0 -0 -0 -0 -0 -0 -0 -0 -0 -0
-0 -0 -0 -0 -0 -0 -0 -0 -0 -0 -0 -0 -0 -0 -0 -0 -0 -0 -0 -0 -0 -0 -0 -0 -0 -0 -0 -0 -0 -0 -0 -0 -0 -0 -0 -0 -0 -0 -0 -0 -0 -0 -0 -0 -0
-0 -0 -0 -0 -0 -0 -0 -0 -0 -0 -0 -0 -0 -0 -0 -0 -0 -0 -0 -0 -0 -0 -0 -0 -0 -0 -0 -0 -0 -0 -0 -0 -0 -0 -0 -0 -0 -0 -0 -0 -0 -0 -0 -0 -0
-0 -0 -0 -0 -0 -0 -0 -0 -0 -0 -0 -0 -0 -0 -0 -0 -0 -0 -0 -0 -0 -0 -0 -0 -0 -0 -0 -0 -0 -0 -0 -0 -0 -0 -0 -0 -0 -0 -0 -0 -0 -0 -0 -0 -0
-0 -0 -0 -0 -0 -0 -0 -0 -0 -0 -0 -0 -0 -0 -0 -0 -0 -0 -0 -0 -0 -0 -0 -0 -0 -0 -0 -0 -0 -0 -0 -0 -0 -0 -0 -0 -0 -0 -0 -0 -0 -0 -0 -1 -0
-0 -0 -0 -0 -0 -0 -0 -0 -0 -0 -0 -0 -0 -0 -0 -0 -0 -0 -0 -0 -0 -0 -0 -0 -0 -0 -0 -0 -0 -0 -0 -0 -0 -0 -0 -0 -0 -0 -4 -0 -0 -0 -0 -0 -0
-0 -0 -0 -0 -0 -0 -0 -0 -0 -0 -0 -0 -0 -0 -0 -0 -0 -0 -0 -0 -0 -0 -0 -0 -0 -0 -0 -0 -0 -0 -0 -0 -0 -0 -0 -0 -0 -0 -0 -4 -0 -0 -0 -1 -0
-0 -0 -0 -0 -0 -0 -0 -0 -0 -0 -0 -0 -0 -0 -0 -0 -0 -0 -0 -0 -0 -0 -0 -0 -0 -0 -0 -0 -0 -0 -0 -0 -0 -0 -0 -0 -0 -0 -1 -0 -1 -1 -0 -1 -1
-0 -0 -0 -0 -0 -0 -0 -0 -0 -0 -0 -0 -0 -0 -0 -0 -0 -0 -0 -0 -0 -0 -0 -0 -0 -0 -0 -0 -0 -0 -0 -0 -0 -0 -0 -0 -0 -0 -0 -1 -1 -1 -1 -0 -0
-0 -0 -0 -0 -0 -0 -0 -0 -0 -0 -0 -0 -0 -0 -0 -0 -0 -0 -0 -0 -0 -0 -0 -0 -0 -0 -0 -0 -0 -0 -0 -0 -0 -0 -0 -0 -0 -0 -0 -1 -0 -1 -1 -0 -4
-0 -0 -0 -0 -0 -0 -0 -0 -0 -0 -0 -0 -0 -0 -0 -0 -0 -0 -0 -0 -0 -0 -0 -0 -0 -0 -0 -0 -0 -0 -0 -0 -1 -0 -0 -0 -0 -6 -12 -0 -1 -1 -0 -0 -0
-0 -0 -0 -0 -0 -0 -0 -0 -0 -0 -0 -0 -0 -0 -0 -0 -0 -0 -0 -0 -0 -0 -0 -0 -0 -0 -0 -0 -0 -0 -0 -0 -1 -1 -0 -0 -0 -51 -40 -21 -7 -3 -0 -0 -0
-0 -0 -0 -0 -0 -0 -0 -0 -0 -0 -0 -0 -0 -0 -0 -0 -0 -0 -0 -0 -0 -0 -0 -0 -0 -0 -0 -0 -0 -0 -0 -0 -0 -0 -0 -0 -0 -0 -0 -0 -0 -0 -0 -0 -0
Wind_Speed
16 16 17 18 18 17 17 17 15 12 9 7 6 5 7 7 8 3 14 10 10 16 15 7 8 2 5 1 3 3 5 4 6 5 6 6 6 4 2 5 6 5 9 7 9
16 17 17 18 17 17 17 16 15 12 9 6 5 5 7 7 11 17 6 11 11 11 8 8 6 5 2 2 2 4 3 7 6 7 8 6 7 7 7 5 9 10 14 13 9
17 17 18 18 18 17 17 15 14 11 7 5 5 7 9 9 3 10 14 15 13 13 6 6 5 5 4 3 7 5 6 3 6 8 9 9 7 5 7 3 8 9 10 11 12
17 18 18 18 18 17 17 15 12 8 6 5 5 6 7 9 2 10 13 14 12 12 5 6 3 2 3 6 5 2 5 6 3 6 7 8 7 3 8 4 5 7 9 10 9
17 18 19 19 19 19 17 14 10 7 6 5 6 7 8 10 8 11 11 7 6 7 9 6 8 4 4 4 2 5 5 4 5 2 3 5 3 1 5 4 4 6 9 10 10
18 18 19 20 19 18 16 12 9 6 6 6 7 8 7 11 7 11 10 9 11 9 10 11 6 6 4 4 6 4 3 2 3 3 5 9 3 6 5 3 2 5 8 11 11
17 18 19 19 18 17 15 9 7 6 6 8 8 1 20 9 6 11 8 7 8 9 8 8 6 5 3 2 4 3 3 4 5 8 5 14 11 9 7 2 11 3 6 6 7
17 18 19 18 18 18 14 7 7 5 6 8 10 2 8 5 7 11 11 4 6 4 3 6 4 3 5 2 4 3 5 5 10 7 6 10 10 6 7 6 11 9 3 2 5
17 18 19 18 18 18 10 5 4 2 4 6 5 2 7 2 13 11 8 8 4 0 5 3 2 3 2 7 7 4 9 10 8 5 7 7 15 9 13 8 10 7 4 1 3
17 17 18 18 17 18 9 6 4 2 5 2 6 7 6 8 7 11 9 8 4 4 4 4 1 4 11 12 7 12 12 11 11 11 12 14 18 14 15 7 7 3 1 2 5
17 18 18 17 15 16 7 5 6 5 17 11 10 11 6 8 4 17 17 7 4 1 9 6 8 10 13 12 10 12 13 14 12 7 18 11 21 18 7 2 0 1 4 6 8
17 17 17 16 12 16 4 5 5 5 12 11 11 10 7 6 6 21 21 8 7 11 9 6 10 8 8 6 11 7 13 13 12 14 20 19 26 20 5 4 1 1 8 7 9
18 16 15 14 10 4 14 10 5 3 4 6 6 8 7 9 9 15 18 9 8 11 11 11 9 9 10 10 16 14 10 16 22 25 22 15 16 8 6 7 5 2 3 8 9
17 16 16 13 2 3 6 9 4 4 5 5 6 8 11 3 5 13 16 6 6 9 7 8 6 10 5 7 12 11 9 18 19 18 12 17 11 13 11 7 5 7 11 11 11
16 15 14 13 4 5 7 6 2 4 6 5 6 4 8 8 10 14 10 7 8 6 5 6 8 8 8 7 8 8 18 19 20 18 16 5 6 3 9 10 4 8 11 15 15
15 14 15 2 8 5 6 1 4 6 5 4 4 8 3 11 6 9 11 7 1 1 7 6 3 5 7 8 3 11 17 25 10 5 8 6 7 11 8 8 9 13 15 17 17
13 9 7 4 5 7 3 4 6 5 3 5 4 5 4 8 8 10 11 18 10 7 9 1 4 1 7 10 4 15 15 7 5 6 14 2 14 18 12 6 5 17 19 18 20
13 8 3 7 5 4 4 6 3 3 6 1 3 3 5 11 7 9 3 8 15 12 7 7 3 3 8 5 7 12 6 4 7 9 19 22 9 3 6 2 11 19 16 19 19
12 2 1 9 5 3 7 4 6 5 3 5 2 3 4 4 5 5 8 7 9 14 10 8 3 3 3 4 4 7 6 6 11 18 15 10 15 4 5 14 21 19 20 20 19
4 1 4 12 5 6 2 5 4 4 4 3 4 5 5 7 5 7 6 5 3 9 10 4 11 2 3 8 7 7 6 3 4 9 17 11 22 19 21 24 21 22 21 18 19
3 3 7 12 6 3 5 6 5 5 3 6 3 2 5 5 5 4 5 4 5 8 6 9 4 4 8 5 10 8 8 4 10 11 17 20 12 23 27 20 22 21 20 19 17
3 1 8 9 1 4 6 4 2 3 4 4 4 6 4 4 3 2 5 5 4 7 7 5 7 8 20 8 4 3 5 7 9 16 16 17 19 21 22 22 19 21 19 17 18
3 3 5 5 3 4 5 6 6 2 5 2 3 5 2 2 3 2 2 4 3 7 9 10 2 10 1 6 6 7 14 17 16 15 19 17 16 20 23 19 20 18 18 17 17
2 2 5 6 5 6 6 6 5 6 5 4 4 1 1 1 3 1 2 2 3 6 6 5 7 10 11 18 16 18 21 19 17 13 18 20 26 24 23 21 18 18 19 20 19
5 3 3 4 7 8 5 2 6 3 2 1 2 2 3 1 1 1 1 4 3 2 1 7 8 12 14 19 20 20 21 20 15 19 19 21 23 19 17 21 19 21 22 23 22
2 2 4 3 2 4 2 3 6 6 1 1 2 4 2 1 4 4 5 3 3 1 7 7 6 15 14 18 14 24 24 16 11 17 20 26 27 22 22 20 21 22 21 25 22
2 2 0 2 2 2 2 6 6 8 4 4 5 4 1 5 5 6 7 8 9 10 8 6 7 10 9 16 22 13 10 10 15 17 22 19 14 21 21 23 22 23 17 22 23
Wind_Direction
352 349 347 344 340 338 338 339 337 335 329 316 308 312 296 298 284 180 46 348 316 313 307 257 250 243 234 79 333 288 260 47 38 351 78 25 343 46 334 292 63 49 31 22 360
352 349 343 342 338 337 337 336 336 336 330 313 304 308 303 305 114 63 8 335 318 314 329 348 9 319 99 12 6 334 318 39 15 32 14 352 341 335 310 11 25 2 12 10 344
351 347 342 339 337 336 340 337 338 338 345 330 316 315 311 309 140 32 6 340 326 300 314 312 302 321 38 7 14 10 40 23 43 23 344 330 325 333 325 102 28 13 14 19 32
349 345 338 337 338 337 341 340 342 350 1 347 316 302 304 252 36 13 349 318 307 300 302 312 316 8 33 45 16 211 52 19 16 359 329 333 319 81 56 68 38 37 16 18 29
345 341 338 338 340 341 343 344 349 15 17 355 322 308 278 75 45 349 331 338 331 343 17 359 26 340 42 31 30 39 25 339 358 342 338 309 344 67 96 105 58 21 15 17 22
345 341 339 337 338 341 343 346 354 16 8 346 328 317 246 80 343 358 354 8 13 8 32 26 19 351 43 29 6 357 320 51 58 64 37 333 296 227 109 146 62 359 19 24 24
344 341 340 338 336 340 341 350 360 12 350 332 316 39 65 59 352 356 351 21 5 13 26 18 356 346 307 171 351 320 172 166 58 7 17 327 250 219 105 344 320 351 70 32 31
344 341 342 339 335 342 341 341 348 353 345 320 306 93 70 36 348 15 359 33 16 28 15 4 349 18 6 328 206 303 254 335 66 10 38 341 291 94 220 10 325 338 28 47 42
345 343 344 343 336 342 337 315 324 277 323 285 280 5 68 0 21 357 16 355 326 358 22 348 338 6 312 300 215 103 332 332 337 147 346 340 301 298 313 340 323 330 332 31 77
347 344 343 342 336 336 322 296 311 244 259 255 25 126 45 25 3 354 5 336 347 305 209 360 251 46 32 9 20 328 326 321 314 351 332 298 278 303 305 352 328 317 101 3 6
351 346 342 340 326 323 293 214 204 77 45 59 38 77 61 347 305 19 345 311 316 349 2 16 54 30 12 13 342 318 311 309 346 351 319 292 291 289 314 294 285 336 3 14 3
353 348 340 338 320 327 358 47 39 14 81 62 71 71 46 322 359 16 352 26 10 18 347 127 57 17 342 333 325 336 323 350 318 322 316 299 298 289 100 111 75 30 12 1 347
349 343 341 338 311 353 64 41 335 320 114 66 45 34 6 356 34 6 5 333 9 28 33 44 33 350 341 15 353 340 360 339 315 315 293 308 296 116 111 140 141 130 356 1 359
347 341 341 335 332 356 51 350 346 319 182 44 21 38 0 339 73 26 4 343 23 21 10 57 28 357 33 45 354 325 350 312 303 319 321 323 292 324 148 162 202 34 14 355 351
346 340 341 345 41 39 341 334 340 246 237 33 41 317 29 42 340 23 8 348 33 26 285 77 13 10 33 6 340 329 319 295 286 283 295 277 256 135 171 179 82 25 3 347 338
346 340 325 327 81 19 331 259 247 224 91 82 40 1 56 32 39 358 22 34 305 358 70 69 68 35 359 305 255 297 316 294 271 258 251 92 321 289 352 25 8 359 334 345 336
340 340 11 15 4 342 293 223 227 3 181 58 3 358 65 22 29 17 32 47 30 331 20 300 78 112 352 324 273 342 343 331 320 264 298 56 324 284 72 62 12 352 344 343 336
331 294 75 47 344 308 228 229 1 35 37 86 343 44 53 358 58 19 8 48 30 358 303 330 233 359 14 358 312 313 350 308 296 297 303 313 269 36 113 28 348 348 339 333 333
316 178 20 1 352 275 264 35 30 30 9 354 220 274 98 53 320 324 58 45 26 18 1 328 304 163 321 315 321 21 308 349 283 270 276 267 279 341 113 351 347 346 333 333 332
310 288 48 341 316 249 15 72 85 37 345 287 11 345 352 17 341 9 29 24 39 19 343 37 293 79 343 287 208 268 1 302 267 308 306 297 306 302 342 335 344 331 329 334 328
273 248 24 337 261 22 68 61 102 50 342 359 43 58 49 13 356 15 35 93 15 358 325 331 226 314 272 339 338 307 294 229 298 286 290 304 295 338 315 339 331 327 325 330 326
313 292 5 325 30 42 62 73 348 64 41 50 56 48 47 17 357 32 23 39 31 346 347 24 310 296 295 50 40 319 333 311 306 301 295 291 286 297 329 333 326 329 328 336 331
24 3 41 309 69 87 118 91 54 73 34 58 87 23 28 52 300 340 9 88 23 355 8 2 253 304 125 156 169 326 324 306 302 298 282 288 290 313 317 327 328 338 334 329 325
349 29 40 51 11 106 120 111 109 34 67 45 95 104 141 75 56 353 308 90 357 334 339 273 262 267 279 300 318 308 301 299 297 287 294 287 297 306 312 322 329 325 329 329 326
3 56 9 44 46 67 58 95 132 128 72 82 99 73 67 90 295 133 355 312 168 64 190 357 278 294 307 306 294 293 293 298 295 291 285 294 314 341 343 329 331 327 332 326 320
55 122 63 68 84 103 55 153 158 124 141 147 189 125 104 131 357 331 343 330 311 354 330 336 290 317 306 290 322 305 300 302 317 321 312 317 305 348 341 331 327 330 328 314 328
91 94 187 265 104 226 95 137 156 133 65 60 127 156 196 45 359 346 317 304 298 309 314 309 316 319 291 330 309 292 7 326 319 327 318 314 342 327 332 317 326 320 321 321 329